GW3161 Weather Reports


time (UTC)temp
C
wind
direction
speed
KPH
gust
KPH
rain 1hr
cm
rain 24hr
cm
rain mn
cm
humidity
%
barometer
mb
20260506124558 5 148 0.0 6.4 0.00 0.03 0.00 65 1017.7
20260506123054 6 0 0.0 4.8 0.00 0.03 0.00 64 1017.6
20260506121604 6 148 1.6 6.4 0.00 0.03 0.00 65 1017.7
20260506120111 6 0 0.0 4.8 0.00 0.03 0.00 65 1017.3
20260506114614 6 148 4.8 6.4 0.00 0.05 0.00 66 1017.2
20260506113051 6 148 4.8 6.4 0.00 0.05 0.00 66 1017.0
20260506111556 6 148 4.8 9.7 0.00 0.05 0.00 66 1017.1
20260506110058 6 148 4.8 11.3 0.00 0.05 0.00 66 1017.1
20260506104554 6 148 1.6 4.8 0.00 0.08 0.00 66 1017.1
20260506103054 6 148 3.2 8.0 0.00 0.08 0.00 65 1017.1
20260506101548 6 148 6.4 11.3 0.00 0.08 0.00 64 1017.1
20260506100055 6 148 1.6 9.7 0.00 0.08 0.00 63 1017.2
20260506094553 6 199 4.8 8.0 0.00 0.23 0.00 63 1017.1
20260506093109 6 0 1.6 6.4 0.00 0.23 0.00 62 1017.3
20260506091556 6 199 6.4 11.3 0.00 0.23 0.00 62 1017.1
20260506090126 6 157 3.2 8.0 0.00 0.23 0.00 62 1017.1
20260506084557 6 210 8.0 12.9 0.00 0.46 0.00 62 1017.1
20260506083057 6 212 14.5 22.5 0.00 0.46 0.00 61 1017.1
20260506081556 6 195 17.7 20.9 0.00 0.46 0.00 60 1017.1
20260506073102 6 271 8.0 9.7 0.00 0.46 0.00 69 1017.6
20260506071551 6 271 6.4 11.3 0.00 0.46 0.00 69 1017.8
20260506061600 6 287 6.4 19.3 0.00 0.46 0.46 67 1017.6
20260506044605 7 271 12.9 25.7 0.00 0.46 0.46 64 1017.1
20260506043052 7 302 16.1 30.6 0.00 0.46 0.46 61 1016.7
20260506041606 8 244 22.5 35.4 0.00 0.46 0.46 57 1016.5
20260506034601 8 274 20.9 38.6 0.00 0.46 0.46 52 1016.4
20260506033057 8 244 20.9 35.4 0.00 0.46 0.46 49 1016.1
20260506031556 8 288 20.9 33.8 0.00 0.46 0.46 49 1016.1
20260506030052 9 240 19.3 32.2 0.00 0.46 0.46 47 1016.1
20260506024552 9 224 22.5 33.8 0.00 0.46 0.46 48 1016.3
20260506023056 10 267 19.3 33.8 0.00 0.46 0.46 47 1016.3
20260506021552 10 224 22.5 32.2 0.00 0.46 0.46 47 1015.8
20260506020118 10 253 19.3 32.2 0.00 0.46 0.46 44 1015.5
20260506014557 11 251 16.1 33.8 0.00 0.46 0.46 44 1015.5
20260506013056 11 228 12.9 29.0 0.00 0.46 0.46 43 1015.4
20260506011553 11 263 19.3 33.8 0.00 0.46 0.46 43 1015.5
20260506010057 12 230 17.7 33.8 0.00 0.46 0.46 44 1015.3
20260506004557 13 257 11.3 41.8 0.00 0.46 0.46 45 1015.3
20260506003054 12 284 17.7 43.5 0.00 0.46 0.46 45 1015.2
20260506001606 12 233 25.7 46.7 0.00 0.46 0.46 47 1015.3
20260506000123 12 203 25.7 56.3 0.00 0.46 0.46 45 1014.9
20260505234607 12 214 25.7 54.7 0.00 0.46 0.46 45 1015.0
20260505233054 12 233 24.1 53.1 0.00 0.46 0.46 44 1015.1
20260505231556 12 190 16.1 40.2 0.00 0.46 0.46 44 1015.1
20260505230054 12 160 35.4 59.5 0.00 0.46 0.46 42 1014.8
20260505224553 13 223 24.1 62.8 0.00 0.46 0.46 41 1014.9
20260505223051 12 231 32.2 61.2 0.00 0.46 0.46 42 1015.0
20260505221556 12 223 40.2 53.1 0.00 0.46 0.46 45 1015.6
20260505220104 13 235 12.9 48.3 0.00 0.46 0.46 46 1015.4
20260505214601 13 207 12.9 49.9 0.00 0.46 0.46 49 1015.5
20260505213050 13 221 14.5 40.2 0.00 0.46 0.46 49 1015.7
20260505211623 14 181 9.7 43.5 0.00 0.46 0.46 53 1015.9
20260505210051 13 187 17.7 45.1 0.00 0.46 0.46 50 1016.1
20260505204605 12 157 29.0 53.1 0.00 0.46 0.46 52 1016.1
20260505203048 12 201 16.1 46.7 0.00 0.46 0.46 57 1016.2
20260505201550 12 180 24.1 57.9 0.00 0.46 0.46 61 1016.2
20260505200049 12 162 24.1 46.7 0.00 0.46 0.46 57 1016.3
20260505194548 12 185 11.3 45.1 0.00 0.46 0.46 63 1016.1
20260505193052 12 223 38.6 62.8 0.00 0.46 0.46 63 1016.2
20260505191552 11 214 16.1 38.6 0.00 0.46 0.46 68 1016.2
20260505190055 11 144 12.9 30.6 0.00 0.46 0.46 71 1016.5
20260505184548 11 159 12.9 29.0 0.00 0.46 0.46 72 1016.7
20260505183051 12 112 9.7 29.0 0.00 0.46 0.46 69 1016.7
20260505181627 12 184 11.3 29.0 0.00 0.46 0.46 71 1016.8
20260505180106 11 175 14.5 29.0 0.00 0.46 0.46 73 1016.9
20260505174552 10 175 19.3 43.5 0.00 0.46 0.46 76 1016.7
20260505173050 10 150 14.5 33.8 0.00 0.46 0.46 79 1016.7
20260505171559 10 146 17.7 32.2 0.00 0.46 0.46 79 1016.8
20260505170055 9 169 16.1 37.0 0.00 0.46 0.46 80 1016.6
20260505164553 9 186 19.3 46.7 0.00 0.46 0.46 80 1016.5
20260505163053 10 123 19.3 43.5 0.00 0.46 0.46 80 1016.3
20260505161553 9 189 8.0 46.7 0.00 0.46 0.46 81 1016.5
20260505153057 8 187 29.0 59.5 0.00 0.46 0.46 78 1016.1
20260505151551 8 169 17.7 61.2 0.00 0.46 0.46 78 1015.8